Overview Statistics Trail Chart Weather Telemetry Raw packets
 

This is the latest recevied weather packets stored in our database for station/object I5EKX-13. If no packets are shown the sender has not sent any weather packets the latest 10 day(s).

<< 1 2 3 4 >>
Time Temp. Humidity Pressure Rain* Wind** Luminosity Snow
1788600832 31.11° C 59% 1014.3 hPa - - - -
1788599628 31.11° C 59% 1014.2 hPa - - - -
1788598425 28.89° C 66% 1014.1 hPa - - - -
1788597220 28.89° C 66% 1014 hPa - - - -
1788596016 28.33° C 70% 1013.8 hPa - - - -
1788594812 27.22° C 81% 1014 hPa - - - -
1788593609 27.22° C 80% 1013.8 hPa - - - -
1788592405 26.11° C 86% 1013.5 hPa - - - -
1788591201 25° C 93% 1013.4 hPa - - - -
1788589997 24.44° C 96% 1013.3 hPa - - - -
1788588793 23.33° C 96% 1013.3 hPa - - - -
1788587589 22.22° C 93% 1013.2 hPa - - - -
1788586385 21.11° C 90% 1013.1 hPa - - - -
1788585181 20.56° C 91% 1013 hPa - - - -
1788583977 20.56° C 91% 1012.8 hPa - - - -
1788582773 21.11° C 92% 1012.9 hPa - - - -
1788581569 20.56° C 91% 1012.9 hPa - - - -
1788580365 21.11° C 92% 1012.8 hPa - - - -
1788579161 20° C 90% 1012.9 hPa - - - -
1788577957 20° C 89% 1013 hPa - - - -
1788576753 20° C 90% 1013.1 hPa - - - -
1788575549 19.44° C 89% 1013.1 hPa - - - -
1788574345 20° C 91% 1013 hPa - - - -
1788573141 20° C 87% 1013.1 hPa - - - -
1788571937 19.44° C 87% 1013 hPa - - - -

* Rain since midnight (hover to see other rain measurements)
** Current wind speed in m/s (hover to see current wind gust speed)